Buckland, AK

10:02 PM AKDT on April 23, 2017 (GMT -0800)
Buckland

Weather History for PABL - May, 2013

Change the Weather History Date:

Monday, May 20, 2013

  Actual Average (PASK) Record (PASK)
Temperature  
Mean Temperature 36 °F -  
Max Temperature 39 °F 42 °F 71 °F (2005)
Min Temperature 32 °F 27 °F 17 °F (2000)
Degree Days  
Heating Degree Days 30    
Moisture  
Dew Point 29 °F    
Average Humidity 76    
Maximum Humidity 87    
Minimum Humidity 65    
Precipitation  
Precipitation 0.00 in - - ()
Sea Level Pressure  
Sea Level Pressure 30.38 in    
Wind  
Wind Speed 16 mph (SE)    
Max Wind Speed 24 mph    
Max Gust Speed 30 mph    
Visibility 10 miles    
Events      
Averages and records for this station are not official NWS values.
T = Trace of Precipitation, MM = Missing Value Source: NWS Daily Summary

Daily Weather History Graph

Daily Weather History Graph

Search for Another Location

Airport or City:

Trip Planner

Search our weather history database for the weather conditions in past years. The results will help you decide how hot, cold, wet, or windy it might be!

Date:

Astronomy

May. 20, 2013 Rise Set
Actual Time 4:44 AM AKDT 12:41 AM AKDT
Civil Twilight 3:13 AM AKDT Sun does not set
Nautical Twilight Sun does not set Sun does not set
Astronomical Twilight Sun does not set Sun does not set
Moon 5:50 PM AKDT (5/20) 4:10 AM AKDT (5/20)
Length of Visible Light 24h 00m
Length of Day
19h 56m
Waxing Gibbous, 76% of the Moon is Illuminated
May 20
Waxing Gibbous
May 24
Full
May 31
Last Quarter
Jun 8
New
Jun 16
First Quarter

Hourly Weather History & Observations

Time (AKDT) Temp. Windchill Dew Point Humidity Pressure Visibility Wind Dir Wind Speed Gust Speed Precip Events Conditions
12:16 AM 35.6 °F 24.0 °F 28.4 °F 75% 30.43 in 10.0 mi South 23.0 mph 27.6 mph N/A   Overcast
12:36 AM 35.6 °F 24.5 °F 28.4 °F 75% 30.43 in 10.0 mi South 20.7 mph 26.5 mph N/A   Overcast
12:56 AM 35.6 °F 24.2 °F 26.6 °F 70% 30.43 in 10.0 mi South 21.9 mph 26.5 mph N/A   Overcast
1:16 AM 35.6 °F 24.8 °F 28.4 °F 75% 30.44 in 10.0 mi South 19.6 mph 24.2 mph N/A   Overcast
1:36 AM 35.6 °F 25.5 °F 26.6 °F 70% 30.44 in 10.0 mi South 17.3 mph 24.2 mph N/A   Overcast
1:56 AM 35.6 °F 25.9 °F 26.6 °F 70% 30.44 in 10.0 mi South 16.1 mph 24.2 mph N/A   Overcast
2:16 AM 35.6 °F 25.5 °F 26.6 °F 70% 30.44 in 10.0 mi South 17.3 mph 20.7 mph N/A   Overcast
2:36 AM 35.6 °F 25.9 °F 26.6 °F 70% 30.44 in 10.0 mi South 16.1 mph 23.0 mph N/A   Overcast
2:56 AM 35.6 °F 25.9 °F 26.6 °F 70% 30.44 in 10.0 mi SSW 16.1 mph 21.9 mph N/A   Overcast
3:16 AM 33.8 °F 25.8 °F 28.4 °F 81% 30.45 in 10.0 mi SSW 10.4 mph 23.0 mph N/A   Overcast
3:36 AM 33.8 °F 26.4 °F 28.4 °F 81% 30.45 in 10.0 mi SE 9.2 mph - N/A   Overcast
3:56 AM 33.8 °F 24.8 °F 26.6 °F 75% 30.44 in 10.0 mi SSE 12.7 mph - N/A   Overcast
4:16 AM 35.6 °F 27.1 °F 26.6 °F 70% 30.44 in 10.0 mi SE 12.7 mph 16.1 mph N/A   Overcast
4:36 AM 33.8 °F 25.8 °F 28.4 °F 81% 30.44 in 10.0 mi SSE 10.4 mph - N/A   Overcast
4:56 AM 33.8 °F 24.8 °F 26.6 °F 75% 30.44 in 10.0 mi SSE 12.7 mph - N/A   Overcast
5:16 AM 32.0 °F 21.2 °F 28.4 °F 87% 30.44 in 10.0 mi SE 16.1 mph - N/A   Overcast
5:36 AM 32.0 °F 20.8 °F 28.4 °F 87% 30.43 in 10.0 mi SE 17.3 mph - N/A   Overcast
5:56 AM 32.0 °F 20.8 °F 28.4 °F 87% 30.43 in 10.0 mi ESE 17.3 mph 24.2 mph N/A   Overcast
6:16 AM 32.0 °F 21.2 °F 28.4 °F 87% 30.43 in 10.0 mi ESE 16.1 mph 21.9 mph N/A   Overcast
6:36 AM 32.0 °F 21.6 °F 28.4 °F 87% 30.43 in 10.0 mi SE 15.0 mph - N/A   Overcast
6:56 AM 32.0 °F 21.2 °F 28.4 °F 87% 30.42 in 10.0 mi SE 16.1 mph - N/A   Overcast
7:16 AM 32.0 °F 20.1 °F 28.4 °F 87% 30.42 in 10.0 mi ESE 19.6 mph 28.8 mph N/A   Overcast
7:36 AM 33.8 °F 21.9 °F 28.4 °F 81% 30.41 in 10.0 mi SE 21.9 mph 28.8 mph N/A   Overcast
7:56 AM 33.8 °F 21.3 °F 28.4 °F 81% 30.41 in 10.0 mi SE 24.2 mph 29.9 mph N/A   Overcast
8:16 AM 33.8 °F 21.9 °F 28.4 °F 81% 30.41 in 10.0 mi SE 21.9 mph 28.8 mph N/A   Overcast
8:36 AM 33.8 °F 21.9 °F 28.4 °F 81% 30.40 in 10.0 mi SE 21.9 mph - N/A   Overcast
8:56 AM 33.8 °F 22.2 °F 28.4 °F 81% 30.41 in 10.0 mi SE 20.7 mph - N/A   Overcast
9:16 AM 33.8 °F 22.5 °F 28.4 °F 81% 30.40 in 10.0 mi SE 19.6 mph 24.2 mph N/A   Overcast
9:36 AM 33.8 °F 22.8 °F 28.4 °F 81% 30.41 in 10.0 mi SE 18.4 mph - N/A   Overcast
9:56 AM 33.8 °F 22.5 °F 28.4 °F 81% 30.40 in 10.0 mi SE 19.6 mph 25.3 mph N/A   Overcast
10:16 AM 33.8 °F 23.5 °F 28.4 °F 81% 30.41 in 10.0 mi SE 16.1 mph - N/A   Overcast
10:56 AM 33.8 °F 23.2 °F 30.2 °F 87% 30.41 in 10.0 mi SE 17.3 mph 20.7 mph N/A   Overcast
11:16 AM 33.8 °F 25.3 °F 30.2 °F 87% 30.41 in 10.0 mi ESE 11.5 mph - N/A   Overcast
11:36 AM 35.6 °F 27.5 °F 30.2 °F 81% 30.41 in 10.0 mi SE 11.5 mph 17.3 mph N/A   Overcast
11:56 AM 35.6 °F 25.9 °F 28.4 °F 75% 30.40 in 10.0 mi SE 16.1 mph 21.9 mph N/A   Overcast
12:16 PM 35.6 °F 25.5 °F 28.4 °F 75% 30.40 in 10.0 mi SE 17.3 mph 21.9 mph N/A   Overcast
12:36 PM 35.6 °F 25.2 °F 28.4 °F 75% 30.39 in 10.0 mi SSE 18.4 mph 25.3 mph N/A   Overcast
12:56 PM 35.6 °F 24.0 °F 28.4 °F 75% 30.39 in 10.0 mi SE 23.0 mph 27.6 mph N/A   Overcast
1:16 PM 35.6 °F 24.2 °F 28.4 °F 75% 30.39 in 10.0 mi SSE 21.9 mph 27.6 mph N/A   Overcast
1:36 PM 35.6 °F 25.2 °F 28.4 °F 75% 30.40 in 10.0 mi SSE 18.4 mph - N/A   Overcast
1:56 PM 35.6 °F 25.2 °F 28.4 °F 75% 30.39 in 10.0 mi SSE 18.4 mph 23.0 mph N/A   Overcast
2:16 PM 35.6 °F 25.9 °F 30.2 °F 81% 30.40 in 10.0 mi SE 16.1 mph - N/A   Overcast
2:36 PM 37.4 °F 29.3 °F 30.2 °F 75% 30.39 in 10.0 mi SE 12.7 mph - N/A   Overcast
2:56 PM 37.4 °F 31.4 °F 30.2 °F 75% 30.40 in 10.0 mi ESE 8.1 mph - N/A   Overcast
3:16 PM 37.4 °F 29.8 °F 30.2 °F 75% 30.39 in 10.0 mi East 11.5 mph - N/A   Overcast
3:36 PM 37.4 °F 29.8 °F 30.2 °F 75% 30.39 in 10.0 mi ESE 11.5 mph 18.4 mph N/A   Overcast
3:56 PM 39.2 °F 31.2 °F 30.2 °F 70% 30.38 in 10.0 mi East 13.8 mph - N/A   Overcast
4:16 PM 39.2 °F 31.2 °F 28.4 °F 65% 30.37 in 10.0 mi ESE 13.8 mph - N/A   Overcast
4:36 PM 39.2 °F 32.5 °F 28.4 °F 65% 30.37 in 10.0 mi ESE 10.4 mph - N/A   Overcast
4:56 PM 37.4 °F 30.3 °F 30.2 °F 75% 30.36 in 10.0 mi ESE 10.4 mph - N/A   Overcast
5:16 PM 39.2 °F 33.6 °F 30.2 °F 70% 30.36 in 10.0 mi ESE 8.1 mph - N/A   Overcast
5:36 PM 39.2 °F 32.5 °F 30.2 °F 70% 30.35 in 10.0 mi East 10.4 mph - N/A   Overcast
5:56 PM 39.2 °F 33.6 °F 30.2 °F 70% 30.34 in 10.0 mi ESE 8.1 mph - N/A   Overcast
6:16 PM 37.4 °F 32.1 °F 30.2 °F 75% 30.33 in 10.0 mi SE 6.9 mph - N/A   Overcast
6:36 PM 37.4 °F 30.3 °F 28.4 °F 70% 30.32 in 10.0 mi SE 10.4 mph - N/A   Overcast
6:56 PM 37.4 °F 30.8 °F 28.4 °F 70% 30.32 in 10.0 mi SE 9.2 mph - N/A   Overcast
7:16 PM 37.4 °F 30.3 °F 30.2 °F 75% 30.31 in 10.0 mi SE 10.4 mph - N/A   Overcast
7:36 PM 37.4 °F 30.3 °F 28.4 °F 70% 30.30 in 10.0 mi SE 10.4 mph - N/A   Overcast
7:56 PM 37.4 °F 31.4 °F 28.4 °F 70% 30.30 in 10.0 mi SE 8.1 mph - N/A   Overcast
8:16 PM 37.4 °F 32.1 °F 30.2 °F 75% 30.29 in 10.0 mi ESE 6.9 mph - N/A   Overcast
8:36 PM 37.4 °F 31.4 °F 30.2 °F 75% 30.29 in 10.0 mi ESE 8.1 mph - N/A   Overcast
8:56 PM 39.2 °F 33.6 °F 30.2 °F 70% 30.28 in 10.0 mi ESE 8.1 mph - N/A   Overcast
9:16 PM 37.4 °F 31.4 °F 30.2 °F 75% 30.27 in 10.0 mi East 8.1 mph - N/A   Overcast
9:36 PM 37.4 °F 30.8 °F 30.2 °F 75% 30.27 in 10.0 mi ESE 9.2 mph - N/A   Overcast
9:56 PM 37.4 °F 30.8 °F 30.2 °F 75% 30.27 in 10.0 mi East 9.2 mph - N/A   Overcast
10:16 PM 37.4 °F 30.8 °F 30.2 °F 75% 30.26 in 10.0 mi ESE 9.2 mph - N/A   Overcast
10:36 PM 39.2 °F 34.2 °F 28.4 °F 65% 30.26 in 10.0 mi SE 6.9 mph - N/A   Overcast
10:56 PM 35.6 °F 31.7 °F 30.2 °F 81% 30.26 in 10.0 mi South 4.6 mph - N/A   Overcast
11:16 PM 35.6 °F 30.7 °F 30.2 °F 81% 30.25 in 10.0 mi SSE 5.8 mph - N/A   Overcast
11:36 PM 35.6 °F 31.7 °F 30.2 °F 81% 30.25 in 10.0 mi SE 4.6 mph - N/A   Overcast
11:56 PM 37.4 °F 31.4 °F 28.4 °F 70% 30.24 in 10.0 mi SE 8.1 mph - N/A   Overcast